FW9219 Weather Reports


time (UTC)temp
C
wind
direction
speed
KPH
gust
KPH
rain 1hr
cm
rain 24hr
cm
rain mn
cm
humidity
%
barometer
mb
20260509102036 7 0 0.0 0.0 0.00 0.00 0.00 91 1019.8
20260509101526 7 0 0.0 0.0 0.00 0.00 0.00 91 1019.8
20260509101016 7 0 0.0 0.0 0.00 0.00 0.00 91 1019.7
20260509095955 7 0 0.0 0.0 0.00 0.00 0.00 91 1019.3
20260509095445 7 0 0.0 0.0 0.00 0.00 0.00 91 1019.4
20260509094936 7 0 0.0 0.0 0.00 0.00 0.00 92 1019.3
20260509094435 7 0 0.0 0.0 0.00 0.00 0.00 92 1018.9
20260509093916 6 0 0.0 0.0 0.00 0.00 0.00 92 1019.0
20260509092855 6 45 0.0 0.0 0.00 0.00 0.00 92 1018.7
20260509092345 6 68 0.0 0.0 0.00 0.00 0.00 91 1018.4
20260509091835 6 68 0.0 0.0 0.00 0.00 0.00 91 1018.3
20260509091325 6 45 0.0 0.0 0.00 0.00 0.00 91 1018.0
20260509090815 6 135 0.0 0.0 0.00 0.00 0.00 90 1018.1
20260509090305 7 135 0.0 0.0 0.00 0.00 0.00 90 1017.9
20260509085754 7 135 0.0 0.0 0.00 0.00 0.00 90 1017.7
20260509085245 6 158 0.0 0.0 0.00 0.00 0.00 90 1017.9
20260509084734 6 203 0.0 0.0 0.00 0.00 0.00 90 1017.8
20260509084224 6 158 0.0 0.0 0.00 0.00 0.00 90 1017.7
20260509083204 6 203 0.0 0.0 0.00 0.00 0.00 91 1017.5
20260509082653 6 135 0.0 0.0 0.00 0.00 0.00 91 1017.5
20260509082144 6 68 0.0 0.0 0.00 0.00 0.00 91 1017.0
20260509081634 6 45 0.0 0.0 0.00 0.00 0.00 91 1017.0
20260509081124 6 45 0.0 0.0 0.00 0.00 0.00 91 1017.0
20260509080613 7 45 0.0 0.0 0.00 0.00 0.00 91 1016.9
20260509080104 7 45 0.0 0.0 0.00 0.00 0.00 90 1016.6
20260509075553 7 45 0.0 0.0 0.00 0.00 0.00 90 1016.5
20260509075043 7 315 0.0 0.0 0.00 0.00 0.00 89 1016.6
20260509073513 7 315 0.0 0.0 0.00 0.00 0.00 90 1016.3
20260509073002 7 315 0.0 0.0 0.00 0.00 0.00 90 1016.2
20260509072453 7 315 0.0 0.0 0.00 0.00 0.00 91 1015.9
20260509071942 6 45 0.0 0.0 0.00 0.00 0.00 91 1015.9
20260509070922 6 23 0.0 0.0 0.00 0.00 0.00 91 1015.6
20260509070415 6 23 0.0 0.0 0.00 0.00 0.00 91 1015.7
20260509070216 6 23 0.0 0.0 0.00 0.00 0.00 91 1015.3
20260509065649 6 90 0.0 0.0 0.00 0.00 0.00 91 1015.3
20260509065139 6 135 0.0 0.0 0.00 0.00 0.00 90 1015.3
20260509064119 6 203 0.0 0.0 0.00 0.00 0.00 89 1014.9
20260509063609 6 203 0.0 0.0 0.00 0.00 0.00 89 1014.8
20260509063059 6 180 0.0 0.0 0.00 0.00 0.00 89 1014.8
20260509062548 6 158 0.0 0.0 0.00 0.00 0.00 89 1014.8
20260509061529 6 135 0.0 0.0 0.00 0.00 0.00 90 1014.4
20260509061018 6 135 0.0 0.0 0.00 0.00 0.00 90 1014.4
20260509060508 6 135 0.0 0.0 0.00 0.00 0.00 90 1014.4
20260509055958 6 135 0.0 0.0 0.00 0.00 0.00 91 1014.3
20260509055453 6 135 0.0 0.0 0.00 0.00 0.00 91 1013.9
20260509054938 6 90 0.0 0.0 0.00 0.00 0.00 91 1013.7
20260509054428 5 158 0.0 0.0 0.00 0.00 0.00 92 1013.7
20260509052857 5 68 0.0 0.0 0.00 0.00 0.00 92 1013.4
20260509052347 5 0 0.0 0.0 0.00 0.00 0.00 92 1012.8
20260509051837 5 0 0.0 0.0 0.00 0.00 0.00 92 1013.0
20260509051327 5 45 0.0 0.0 0.00 0.00 0.00 92 1012.6
20260509050817 5 23 0.0 0.0 0.00 0.00 0.00 92 1012.8
20260509050307 5 23 0.0 0.0 0.00 0.00 0.00 92 1012.7
20260509044736 5 90 0.0 0.0 0.00 0.00 0.00 92 1012.3
20260509044226 5 0 0.0 0.0 0.00 0.00 0.00 91 1011.7
20260509043716 6 68 0.0 0.0 0.00 0.00 0.00 91 1011.7
20260509043206 5 68 0.0 0.0 0.00 0.00 0.00 91 1011.8
20260509042656 6 113 0.0 0.0 0.00 0.00 0.00 90 1011.6
20260509042146 6 113 0.0 0.0 0.00 0.00 0.00 90 1011.6
20260509041636 6 113 0.0 0.0 0.00 0.00 0.00 89 1011.5
20260509040616 7 113 0.0 0.0 0.00 0.00 0.00 89 1011.4
20260509035555 7 113 0.0 0.0 0.00 0.00 0.00 89 1010.9
20260509035045 7 113 0.0 0.0 0.00 0.00 0.00 89 1011.2
20260509034025 7 113 0.0 0.0 0.00 0.00 0.00 87 1011.3
20260509033514 7 113 0.0 0.0 0.00 0.00 0.00 86 1011.2
20260509033013 8 113 0.0 3.2 0.00 0.00 0.00 85 1011.3
20260509032455 8 158 0.0 3.2 0.00 0.00 0.00 84 1011.4
20260509031944 8 158 0.0 3.2 0.00 0.00 0.00 84 1011.3
20260509031434 8 158 0.0 0.0 0.00 0.00 0.00 84 1011.2
20260509030924 8 135 0.0 3.2 0.00 0.00 0.00 84 1011.2
20260509030414 8 135 0.0 3.2 0.00 0.00 0.00 83 1011.3
20260509025904 8 135 0.0 0.0 0.00 0.00 0.00 83 1011.3
20260509025354 8 225 0.0 0.0 0.00 0.00 0.00 84 1011.3
20260509024844 8 225 0.0 0.0 0.00 0.00 0.00 83 1011.3
20260509024333 8 225 0.0 0.0 0.00 0.00 0.00 83 1011.3
20260509023823 9 225 0.0 0.0 0.00 0.00 0.00 83 1011.2
20260509023313 9 203 0.0 0.0 0.00 0.00 0.00 82 1011.2
20260509022803 9 225 0.0 0.0 0.00 0.00 0.00 82 1011.3
20260509022253 9 225 0.0 0.0 0.00 0.00 0.00 81 1011.5
20260509021743 9 225 0.0 3.2 0.00 0.00 0.00 81 1011.4
20260509021238 9 203 0.0 3.2 0.00 0.00 0.00 81 1011.6
20260509020723 9 248 0.0 3.2 0.00 0.00 0.00 81 1011.5
20260509020212 9 225 0.0 3.2 0.00 0.00 0.00 82 1011.5
20260509015703 9 203 1.6 3.2 0.00 0.00 0.00 82 1011.4
20260509015152 9 158 0.0 3.2 0.00 0.00 0.00 81 1011.7
20260509014642 9 158 0.0 3.2 0.00 0.00 0.00 81 1011.6
20260509014132 10 180 0.0 6.4 0.00 0.00 0.00 80 1011.8
20260509013112 10 158 4.8 11.3 0.00 0.00 0.00 79 1011.6
20260509012602 10 180 3.2 12.9 0.00 0.00 0.00 78 1011.6
20260509011542 10 203 3.2 11.3 0.00 0.00 0.00 76 1011.3
20260509011031 10 248 4.8 11.3 0.00 0.00 0.00 76 1011.0
20260509010521 10 248 8.0 11.3 0.00 0.00 0.00 76 1010.9
20260509010013 10 225 3.2 11.3 0.00 0.00 0.00 76 1010.9
20260509005501 10 270 6.4 11.3 0.00 0.00 0.00 76 1010.1
20260509004441 11 203 3.2 11.3 0.00 0.00 0.00 75 1010.2
20260509003930 11 248 3.2 11.3 0.00 0.00 0.00 74 1010.1
20260509003420 11 158 4.8 9.7 0.00 0.00 0.00 73 1010.2
20260509002911 11 203 0.0 9.7 0.00 0.00 0.00 72 1010.7
20260509002401 11 248 3.2 11.3 0.00 0.00 0.00 72 1010.6
20260509001340 11 248 4.8 11.3 0.00 0.00 0.00 72 1010.8
20260509000830 12 270 6.4 11.3 0.00 0.00 0.00 72 1010.9
20260509000320 12 248 4.8 11.3 0.00 0.00 0.00 72 1010.8
20260508235810 12 203 4.8 14.5 0.00 0.00 0.00 73 1010.7
20260508235259 12 225 6.4 14.5 0.00 0.00 0.00 73 1010.6
20260508234749 12 270 9.7 14.5 0.00 0.00 0.00 74 1010.5
20260508233729 12 248 3.2 12.9 0.00 0.00 0.00 75 1010.5
20260508233219 12 270 3.2 12.9 0.00 0.00 0.00 75 1010.4
20260508232709 12 225 4.8 14.5 0.00 0.00 0.00 75 1009.8
20260508232158 12 248 6.4 14.5 0.00 0.00 0.00 75 1010.1
20260508231650 12 225 6.4 17.7 0.00 0.00 0.00 75 1010.0
20260508231139 12 248 6.4 17.7 0.00 0.00 0.00 75 1010.1
20260508230629 12 203 6.4 11.3 0.00 0.00 0.00 75 1010.2
20260508230119 12 248 6.4 14.5 0.00 0.00 0.00 75 1010.0
20260508225609 12 248 4.8 14.5 0.00 0.00 0.00 73 1009.9
20260508225059 13 158 4.8 14.5 0.00 0.00 0.00 71 1009.9
20260508224548 13 180 6.4 14.5 0.00 0.00 0.00 69 1009.9
20260508224048 13 203 6.4 12.9 0.00 0.00 0.00 67 1009.8
20260508223027 13 203 3.2 12.9 0.00 0.00 0.00 69 1009.9
20260508222508 13 225 6.4 12.9 0.00 0.00 0.00 69 1009.6
20260508221958 13 203 8.0 12.9 0.00 0.00 0.00 69 1009.9
20260508221448 14 225 3.2 6.4 0.00 0.00 0.00 67 1009.7
20260508220937 14 225 3.2 11.3 0.00 0.00 0.00 66 1010.0
20260508220428 14 248 1.6 11.3 0.00 0.00 0.00 65 1010.1
20260508215407 14 180 4.8 9.7 0.00 0.00 0.00 61 1010.4
20260508214857 14 203 0.0 3.2 0.00 0.00 0.00 61 1010.1
20260508214347 14 225 0.0 3.2 0.00 0.00 0.00 60 1010.4
20260508213837 14 180 0.0 9.7 0.00 0.00 0.00 60 1010.0
20260508213326 14 180 3.2 9.7 0.00 0.00 0.00 59 1009.9
20260508212307 15 225 4.8 6.4 0.00 0.00 0.00 57 1010.1
20260508211247 15 225 3.2 9.7 0.00 0.00 0.00 56 1009.9
20260508210226 15 248 6.4 14.5 0.00 0.00 0.00 53 1009.7
20260508205206 15 225 6.4 11.3 0.00 0.00 0.00 53 1009.7
20260508204656 15 225 3.2 17.7 0.00 0.00 0.00 53 1009.7
20260508204146 15 203 6.4 17.7 0.00 0.00 0.00 52 1009.3
20260508203636 15 158 3.2 12.9 0.00 0.00 0.00 52 1009.3
20260508203126 15 225 6.4 14.5 0.00 0.00 0.00 52 1009.6
20260508202616 15 225 6.4 14.5 0.00 0.00 0.00 52 1009.5
20260508202105 15 203 9.7 14.5 0.00 0.00 0.00 52 1009.5
20260508201556 15 180 3.2 17.7 0.00 0.00 0.00 52 1009.6
20260508201045 15 180 6.4 20.9 0.00 0.00 0.00 51 1009.3
20260508200025 15 158 9.7 14.5 0.00 0.00 0.00 51 1009.7
20260508195515 15 203 8.0 14.5 0.00 0.00 0.00 52 1009.7
20260508195005 16 203 6.4 14.5 0.00 0.00 0.00 52 1009.8
20260508194454 16 203 3.2 17.7 0.00 0.00 0.00 52 1009.7
20260508193945 16 180 6.4 17.7 0.00 0.00 0.00 52 1009.6
20260508193434 16 180 6.4 12.9 0.00 0.00 0.00 53 1009.9
20260508192924 16 203 6.4 17.7 0.00 0.00 0.00 53 1010.1
20260508192414 16 158 6.4 17.7 0.00 0.00 0.00 52 1010.0
20260508191354 16 203 6.4 17.7 0.00 0.00 0.00 51 1010.1
20260508190844 16 203 6.4 20.9 0.00 0.00 0.00 52 1010.5
20260508190334 16 203 6.4 20.9 0.00 0.00 0.00 52 1010.4
20260508185824 16 225 8.0 17.7 0.00 0.00 0.00 53 1010.4
20260508184809 16 248 11.3 20.9 0.00 0.00 0.00 54 1010.5
20260508184253 16 225 12.9 20.9 0.00 0.00 0.00 56 1010.7
20260508183233 17 225 6.4 20.9 0.00 0.00 0.00 56 1010.6
20260508182722 17 248 9.7 20.9 0.00 0.00 0.00 55 1010.7
20260508182212 17 248 9.7 17.7 0.00 0.00 0.00 56 1010.8
20260508181709 17 248 11.3 20.9 0.00 0.00 0.00 56 1010.8
20260508180642 17 248 9.7 22.5 0.00 0.00 0.00 55 1010.6
20260508180132 16 248 6.4 25.7 0.00 0.00 0.00 56 1010.7
20260508175621 16 225 6.4 25.7 0.00 0.00 0.00 56 1010.7
20260508175112 16 270 8.0 17.7 0.00 0.00 0.00 55 1011.3
20260508174602 17 225 6.4 22.5 0.00 0.00 0.00 55 1011.0
20260508174051 17 248 8.0 22.5 0.00 0.00 0.00 54 1010.9
20260508173542 17 135 12.9 22.5 0.00 0.00 0.00 53 1011.2
20260508172521 17 180 11.3 20.9 0.00 0.00 0.00 52 1011.7
20260508172011 17 248 11.3 17.7 0.00 0.00 0.00 50 1011.7
20260508171501 17 248 8.0 17.7 0.00 0.00 0.00 50 1011.7
20260508165930 18 270 8.0 17.7 0.00 0.00 0.00 46 1012.2
20260508165421 17 248 9.7 20.9 0.00 0.00 0.00 46 1012.5
20260508164400 17 248 11.3 17.7 0.00 0.00 0.00 45 1012.2
20260508163850 17 203 8.0 17.7 0.00 0.00 0.00 46 1012.4
20260508163340 17 225 8.0 17.7 0.00 0.00 0.00 46 1012.5
20260508162830 17 293 11.3 17.7 0.00 0.00 0.00 47 1012.7
20260508161809 17 248 8.0 24.1 0.00 0.00 0.00 45 1012.7
20260508161259 17 248 6.4 22.5 0.00 0.00 0.00 45 1013.1
20260508160240 17 225 11.3 17.7 0.00 0.00 0.00 45 1013.2
20260508114824 11 158 0.0 0.0 0.00 0.00 0.00 83 1014.6
20260508114314 10 158 0.0 0.0 0.00 0.00 0.00 85 1014.9
20260508113804 9 135 0.0 0.0 0.00 0.00 0.00 89 1014.5
20260508113253 9 135 0.0 0.0 0.00 0.00 0.00 89 1014.3
20260508112744 8 135 0.0 0.0 0.00 0.00 0.00 89 1014.5
20260508112234 8 135 0.0 0.0 0.00 0.00 0.00 90 1014.4
20260508111213 7 90 0.0 0.0 0.00 0.00 0.00 90 1014.3
20260508110703 7 135 0.0 0.0 0.00 0.00 0.00 90 1014.2
20260508110153 7 158 0.0 0.0 0.00 0.00 0.00 91 1013.9
20260508105643 7 158 0.0 0.0 0.00 0.00 0.00 91 1014.2
20260508105133 7 90 0.0 0.0 0.00 0.00 0.00 91 1014.2
20260508104113 7 90 0.0 0.0 0.00 0.00 0.00 91 1014.0
20260508103602 8 90 0.0 0.0 0.00 0.00 0.00 91 1013.6
20260508103053 8 90 0.0 0.0 0.00 0.00 0.00 91 1013.9